Theta_e
290 290 289 291 291 289 288 285 285 285 284 285 285 284 281 285 281 280 284 293 293 298 303 305 305 306 305 305 306 307 307 307 307 307 306 306 306 307 308 308 308 308 308 307 306 307 307 308 307 307 307 306 306 306 307 309 310 309 309 308 307 306 306 305 305 305 304 304 303 302 301 300 299 299 300 301 301 301 301 302 303 302 303 302 302 301 301
288 289 288 290 292 289 289 289 289 288 286 286 286 283 283 285 282 281 290 294 294 299 304 306 306 307 307 306 307 307 306 305 306 306 305 305 306 307 307 307 308 308 307 307 306 306 306 307 306 306 305 304 304 306 307 309 309 309 309 307 307 306 305 305 304 303 303 302 301 300 299 299 298 298 298 299 299 299 299 300 300 301 301 301 300 299 299
287 288 289 290 291 289 288 289 290 289 287 287 285 285 287 289 290 288 293 295 293 295 304 306 307 307 306 306 305 305 305 305 305 305 305 305 306 307 307 307 308 307 306 306 307 306 306 306 305 304 304 304 304 306 307 308 308 308 308 307 306 305 304 304 303 302 301 300 299 298 298 297 297 297 297 298 298 298 298 298 298 299 299 298 298 298 297
284 288 285 286 287 290 288 287 289 289 289 288 288 286 288 287 289 292 293 290 290 296 306 306 306 305 304 303 304 304 304 305 305 304 304 305 306 306 306 307 307 306 306 306 306 307 306 306 304 303 304 304 304 305 307 307 307 307 307 306 305 304 303 302 301 300 299 298 297 297 297 296 296 296 297 296 296 297 297 297 297 298 297 297 297 297 297
281 286 284 284 282 284 286 285 288 289 290 291 291 291 292 292 296 291 285 287 291 299 305 303 303 304 304 304 304 304 304 305 305 305 305 305 306 306 306 306 306 306 306 307 307 307 306 306 305 304 304 304 304 305 306 306 307 306 305 305 304 304 304 303 301 300 299 297 296 296 296 296 296 296 295 295 295 295 296 297 297 296 296 296 296 297 297
280 285 284 283 280 274 276 284 288 292 292 290 291 290 291 293 294 291 291 291 300 303 304 303 302 303 304 305 305 306 305 304 304 304 305 305 306 306 306 306 306 306 307 307 307 307 306 306 306 305 305 304 304 305 306 306 305 305 304 303 303 303 302 302 301 300 298 296 295 295 295 295 295 295 295 294 294 295 295 296 295 295 296 296 296 296 296
281 283 284 279 274 273 283 285 287 292 294 293 294 294 294 294 291 290 294 299 301 303 305 305 305 305 305 306 305 304 305 305 305 304 304 304 304 304 303 303 305 306 306 306 305 305 305 305 304 304 303 303 303 304 304 304 303 303 302 301 301 301 300 300 299 298 296 295 295 294 294 294 294 294 294 294 294 294 294 294 294 294 294 294 295 295 295
280 282 278 273 271 280 287 292 294 294 295 293 293 291 293 292 293 291 294 299 302 303 303 304 305 305 304 305 305 305 306 306 305 304 303 303 303 301 302 304 304 304 305 305 305 304 305 304 303 303 302 302 302 302 303 302 301 301 300 299 299 298 298 297 297 297 296 294 294 294 294 294 293 293 293 293 293 294 294 293 293 293 293 294 294 294 294
280 277 277 278 281 284 288 290 294 293 291 291 286 284 287 291 291 294 298 301 302 302 303 303 303 304 304 301 300 304 306 305 304 304 304 303 302 302 303 305 305 306 306 305 305 305 304 303 302 302 301 301 301 300 300 300 300 299 298 298 297 297 297 297 296 296 295 294 294 293 293 293 293 292 292 292 293 294 292 292 292 291 291 292 293 293 294
279 279 277 278 278 276 280 287 289 292 291 291 287 287 285 289 292 296 302 301 301 301 301 302 302 303 300 296 298 302 302 301 299 299 300 301 302 303 304 305 306 306 305 305 305 304 302 301 301 301 300 300 299 299 298 298 298 297 297 296 296 296 295 295 294 294 294 294 293 293 293 292 292 292 292 292 292 293 291 291 290 291 291 291 291 292 292
279 279 278 272 276 276 279 287 289 293 292 292 289 288 286 287 297 298 302 301 301 301 300 301 303 301 296 296 300 302 300 299 300 299 300 301 303 304 305 304 304 304 304 304 303 302 301 300 300 300 299 299 299 298 298 297 296 295 295 294 294 293 293 293 293 293 293 293 293 292 292 291 292 291 291 291 291 291 290 290 290 291 292 290 290 291 291
276 276 277 277 273 279 288 285 289 292 292 291 289 279 278 288 298 301 302 301 301 301 302 303 303 301 296 298 301 301 300 300 300 299 300 301 303 304 305 305 305 304 304 303 301 300 300 299 300 299 299 298 298 297 296 296 295 294 293 293 292 293 293 293 293 293 294 294 293 292 291 291 291 291 291 290 289 290 289 290 290 290 291 290 290 290 290
276 277 274 274 279 284 285 288 291 292 292 288 278 278 282 288 298 301 302 302 302 303 302 303 300 302 301 301 301 300 300 299 299 301 302 303 304 304 304 303 302 303 303 302 301 300 299 299 299 298 298 297 296 295 294 293 292 292 292 292 292 292 292 292 292 292 292 292 292 292 292 291 292 291 290 289 289 289 289 289 290 290 290 290 290 290 290
280 274 278 279 275 282 288 288 293 294 291 281 282 287 289 294 299 300 302 301 302 303 303 303 297 296 300 300 300 299 299 298 299 301 302 302 303 304 303 302 303 302 301 300 299 299 299 298 298 297 297 295 294 294 293 291 291 291 291 291 292 292 292 292 292 292 292 292 293 292 292 291 290 290 290 290 289 289 289 289 289 289 290 290 290 290 290
277 269 274 275 277 283 294 294 292 293 285 284 285 289 294 296 300 301 300 302 302 303 299 296 298 299 299 298 298 298 297 298 299 300 301 301 301 301 301 301 301 301 299 298 298 298 297 297 297 297 296 294 293 293 291 291 291 291 291 291 291 291 291 291 292 291 291 292 292 292 291 291 290 289 289 289 289 289 289 289 289 288 288 289 289 289 290
279 272 276 277 281 285 291 294 289 291 288 292 289 293 294 297 299 300 300 300 302 302 298 297 298 299 298 297 297 296 297 298 300 301 301 302 302 302 302 302 300 300 298 298 297 297 297 297 297 297 296 294 293 291 290 291 291 292 291 291 291 291 291 290 290 291 291 291 290 290 291 290 290 289 288 288 289 288 288 288 288 288 288 288 288 288 289
279 278 279 281 286 288 289 293 293 290 290 291 291 293 296 298 298 298 301 300 299 298 298 299 299 297 297 296 296 296 296 297 299 299 300 301 301 301 300 300 300 299 298 297 297 296 296 296 296 295 295 293 292 291 291 292 291 291 291 291 290 289 289 289 289 289 289 289 289 289 289 289 289 289 288 288 288 287 288 288 288 287 287 288 288 288 288
290 291 291 290 288 288 289 290 290 290 292 293 293 296 298 297 298 301 300 298 298 299 300 298 297 297 296 295 295 296 296 297 298 300 301 301 301 301 300 299 299 299 298 297 296 295 295 296 295 295 294 293 292 291 292 292 291 291 290 290 289 289 289 288 288 289 288 288 288 288 288 289 289 288 288 288 288 287 287 287 287 287 288 288 288 288 288
287 283 287 288 289 289 290 289 292 292 291 291 292 294 296 297 298 298 298 299 299 299 299 299 297 296 296 295 295 296 296 297 298 299 299 299 300 299 298 298 298 297 297 295 294 294 294 294 293 293 292 292 292 292 291 291 291 291 290 290 289 288 287 287 287 288 288 287 287 287 287 287 288 288 288 287 288 288 287 287 287 287 288 288 288 288 288
282 282 289 291 289 288 289 289 289 292 291 292 293 292 293 295 297 299 299 299 298 299 298 298 296 296 296 295 295 295 296 296 297 298 299 299 299 299 299 298 298 297 296 294 294 294 293 292 292 292 292 291 292 291 291 291 291 290 290 289 288 287 287 287 287 287 288 286 287 286 286 287 287 287 287 287 287 287 287 287 288 287 287 287 287 287 287
291 293 292 290 289 290 289 290 291 291 291 293 293 294 295 297 297 297 298 300 299 298 298 297 297 296 295 296 295 295 295 296 297 297 298 299 298 298 297 297 297 296 295 294 294 293 292 291 291 291 291 291 291 291 291 291 291 290 289 288 288 287 287 287 287 288 287 287 287 286 286 285 285 285 286 287 287 286 286 286 287 288 288 287 287 286 286
285 286 288 291 287 286 289 289 291 291 293 293 293 294 296 296 296 297 297 297 298 298 298 298 297 296 295 295 296 295 295 296 296 297 298 298 297 297 297 297 296 296 295 294 293 292 291 291 291 291 290 291 291 291 291 291 290 290 289 288 287 287 287 287 286 287 287 287 287 287 286 286 287 288 287 288 288 287 287 289 289 289 288 287 287 287 288
283 288 291 290 288 288 287 288 291 292 293 293 295 295 295 296 297 297 297 295 296 297 297 298 298 297 296 295 296 295 295 295 296 297 296 296 296 296 296 295 295 295 294 294 293 291 290 291 291 291 290 290 290 291 291 291 290 290 289 288 287 286 287 286 287 287 287 286 286 286 286 286 287 287 287 288 288 289 289 289 289 288 288 289 289 289 290
289 292 291 291 289 288 290 290 290 291 292 293 293 294 295 296 297 297 297 296 296 296 296 297 297 296 295 295 296 295 294 295 295 295 296 297 296 296 296 296 295 294 293 293 291 290 291 291 291 291 291 291 291 291 291 291 290 290 289 289 287 286 286 286 287 286 286 286 286 286 285 286 286 286 287 287 288 288 289 289 289 289 289 289 289 289 289
290 292 291 290 290 290 290 290 290 291 293 294 293 292 293 296 297 299 297 296 297 296 295 295 295 297 296 296 295 295 294 295 295 295 295 295 295 295 295 295 294 294 293 293 291 291 291 291 291 291 291 290 291 291 291 291 290 289 289 288 287 286 286 287 287 286 286 286 286 286 286 286 286 286 286 286 286 286 288 288 289 289 289 289 289 289 289
292 292 293 293 292 291 291 292 292 291 292 293 293 292 295 297 298 298 298 297 297 297 296 295 295 296 297 296 295 295 295 294 294 294 295 294 295 295 295 295 294 294 293 292 291 291 291 291 291 291 290 290 291 291 291 291 290 289 289 288 287 287 287 287 287 286 286 286 286 285 285 285 285 285 286 286 286 286 286 287 288 288 289 288 288 289 289
293 294 294 293 292 292 289 288 289 291 291 293 294 293 294 295 296 297 297 297 297 297 296 297 296 296 296 296 296 296 295 294 295 295 295 295 294 295 295 295 295 294 293 292 292 292 291 292 292 291 291 291 291 292 291 291 290 289 289 288 288 285 285 285 287 287 286 285 285 285 285 285 285 285 285 284 285 286 286 286 286 286 286 287 288 288 288
291 291 293 291 290 289 288 289 290 292 293 293 294 294 294 295 295 295 295 296 296 296 297 297 297 296 295 296 295 294 295 295 295 295 295 295 295 295 295 295 294 294 293 293 292 292 292 292 292 292 291 291 291 292 291 291 290 289 289 289 288 287 287 287 286 285 285 286 286 286 286 284 284 284 283 284 285 285 284 285 285 285 286 286 286 287 288
290 292 293 292 291 290 291 291 293 294 294 294 295 295 295 294 294 294 294 295 296 296 296 297 297 297 296 295 295 295 295 295 295 295 295 295 295 295 295 295 295 294 293 292 292 292 292 292 292 291 290 290 291 291 291 291 290 289 289 289 288 287 286 286 286 286 286 286 286 285 283 283 284 284 283 283 283 284 284 284 284 285 286 287 287 288 287
290 292 293 292 292 292 292 290 291 293 294 294 294 294 295 294 293 293 294 295 295 295 296 296 296 296 296 295 295 296 295 295 295 296 296 296 296 296 295 295 294 293 292 292 292 292 292 292 292 291 290 290 291 291 291 291 290 290 289 289 288 288 287 286 286 286 286 286 284 282 284 284 284 284 284 284 284 284 284 283 283 283 286 287 287 285 286
289 290 291 292 292 291 291 291 292 293 294 294 294 294 293 294 293 293 293 295 295 295 296 296 296 296 296 296 296 297 297 296 296 296 296 296 296 295 295 294 293 291 291 291 292 292 292 292 292 291 291 291 292 292 291 290 290 289 289 288 288 285 284 284 284 287 286 285 284 285 284 284 284 284 283 284 284 284 283 283 283 284 282 283 284 284 286
290 290 290 290 291 291 292 293 293 293 293 293 293 293 293 293 292 292 293 294 294 295 295 295 295 295 296 297 296 296 296 296 296 295 295 295 295 295 294 294 294 291 293 292 292 292 292 292 291 291 291 292 291 291 291 290 289 289 289 286 287 286 284 283 285 286 286 285 285 285 284 285 284 284 284 283 284 284 283 283 283 282 282 284 285 285 283
290 288 287 287 288 290 291 292 292 292 293 293 292 293 293 294 294 294 294 294 294 294 295 294 295 296 296 295 295 295 295 295 295 294 294 294 294 294 294 294 294 293 293 293 293 293 292 292 291 291 291 291 291 290 290 290 290 289 288 287 287 286 284 284 285 285 285 285 285 286 285 285 284 284 285 284 284 282 283 283 282 281 283 283 284 284 284
293 291 291 291 291 289 288 288 290 292 292 292 292 292 293 293 293 293 294 294 294 294 294 294 295 295 295 295 295 294 294 293 292 292 293 293 293 293 293 293 293 293 293 293 293 292 292 292 291 291 291 291 290 289 290 290 289 288 288 287 286 285 286 285 285 286 285 285 286 286 285 285 285 285 284 284 284 284 283 282 281 282 282 284 284 283 283
292 291 292 291 291 292 292 291 290 291 292 291 291 292 292 293 293 293 293 294 294 294 294 295 295 295 295 294 294 293 293 291 291 292 292 292 291 291 292 292 292 291 291 291 292 292 292 292 291 291 290 290 290 289 289 289 289 288 287 287 287 287 286 285 285 286 286 286 285 286 285 285 285 283 284 284 284 284 284 283 283 282 282 284 285 285 284
291 291 290 290 291 291 291 291 291 292 293 292 292 292 292 292 292 292 292 292 293 294 294 295 295 295 294 293 291 289 289 289 289 290 290 289 289 290 291 291 291 290 290 290 291 291 291 291 287 287 289 289 289 289 289 288 288 288 287 287 287 286 286 286 286 286 286 285 285 285 286 285 285 284 284 284 284 284 284 284 284 283 284 284 285 284 285
292 292 291 292 292 291 289 290 290 291 291 291 292 291 291 291 292 292 292 293 293 294 294 294 294 293 290 289 288 288 288 289 289 289 289 288 289 291 291 291 291 290 290 289 289 290 290 290 286 286 288 288 288 288 287 285 287 286 286 287 287 286 286 285 285 286 285 285 286 286 285 284 284 285 283 284 285 285 284 285 284 284 284 284 283 283 284
291 292 292 293 293 291 290 288 289 290 290 289 289 291 291 291 291 292 292 292 293 293 294 294 293 291 289 289 289 288 287 288 288 288 288 289 291 291 291 290 289 289 289 289 289 289 290 288 285 287 288 288 288 287 286 284 285 287 287 287 287 287 286 286 285 285 285 285 284 285 285 285 285 285 284 284 284 284 284 284 284 284 284 284 284 283 284
292 293 293 293 292 291 289 289 290 289 290 290 288 288 289 291 291 292 291 291 292 293 293 292 292 291 291 291 290 290 290 289 288 289 289 290 291 291 289 290 290 291 292 290 290 290 288 286 288 289 288 288 288 287 285 283 284 287 287 287 287 287 287 286 287 286 285 285 285 285 285 285 284 285 285 285 285 284 283 284 284 284 284 285 285 285 285
291 293 293 293 291 290 291 290 290 289 289 290 290 289 289 291 291 291 291 291 291 292 292 292 292 291 291 291 291 291 291 290 290 290 290 291 290 290 290 290 291 289 289 288 290 289 287 285 287 288 288 288 288 287 285 285 285 286 287 287 287 287 287 286 286 286 285 285 285 284 285 285 285 285 284 285 285 285 285 285 285 284 285 285 285 285 285
290 291 292 292 291 291 291 291 291 292 291 290 290 290 291 291 291 291 290 290 290 291 292 293 292 292 292 292 292 291 291 290 291 291 292 291 290 289 289 289 290 288 289 290 290 288 287 286 288 288 287 287 287 285 286 284 286 286 286 287 287 287 286 286 286 287 286 285 285 286 286 286 285 285 285 285 285 285 285 285 286 285 286 286 286 286 286
291 292 291 291 291 291 291 291 291 292 293 292 290 290 290 291 292 291 291 291 291 291 292 293 291 293 293 293 292 291 291 291 292 292 292 292 290 289 289 290 291 289 287 287 287 287 287 287 287 286 287 287 286 284 285 286 286 286 286 286 286 286 287 286 286 286 286 286 286 286 286 285 286 286 285 285 285 285 286 286 285 286 286 286 286 286 287
292 292 292 291 291 291 291 291 291 291 291 291 291 291 290 290 291 291 291 291 291 291 292 291 290 290 292 292 292 291 291 291 292 292 292 292 293 293 293 292 290 289 285 287 287 287 287 287 287 286 286 287 286 284 284 287 287 286 286 286 286 286 287 287 287 287 286 286 286 286 286 286 286 286 286 286 286 286 286 286 286 286 286 286 286 286 286
292 292 292 291 291 291 291 291 291 291 290 290 291 291 291 291 291 291 291 291 291 291 291 291 291 291 291 292 291 291 290 291 291 291 290 290 291 290 289 291 290 288 285 287 287 287 287 287 287 286 284 285 285 284 286 286 286 286 286 286 285 286 286 286 287 286 286 286 286 286 286 285 286 286 286 286 286 286 285 286 286 286 286 286 286 286 286
292 292 291 291 291 291 292 291 291 291 290 289 289 290 291 291 291 291 292 291 291 291 291 291 291 291 291 291 291 292 292 292 292 291 290 289 288 290 289 287 289 287 287 285 287 287 287 287 287 285 285 284 284 284 287 286 286 286 285 285 285 285 285 286 286 287 287 287 286 286 286 286 286 286 286 286 285 286 286 286 286 286 286 286 286 286 287
290 291 291 288 291 291 292 291 291 291 290 289 288 289 291 291 290 290 292 292 292 292 292 293 292 292 292 292 292 292 292 292 292 294 294 293 292 292 290 288 288 286 286 285 286 287 287 286 285 284 284 284 284 286 287 287 286 286 286 285 285 284 285 285 286 286 287 287 287 286 286 286 286 286 286 286 286 286 286 286 286 286 286 286 287 287 288
289 290 291 291 291 291 291 291 291 291 291 290 289 288 289 289 290 291 291 293 293 293 293 293 293 293 293 293 292 290 290 289 291 291 290 292 290 289 287 287 287 286 285 287 287 287 287 287 285 284 284 284 284 287 287 287 286 286 286 286 286 285 285 285 285 286 286 286 287 286 285 286 286 286 286 285 286 286 286 286 286 287 286 286 286 286 286
289 289 290 291 291 291 291 291 290 289 290 290 289 288 289 290 290 290 291 291 292 292 293 293 293 292 292 293 293 293 292 291 289 290 289 287 287 288 288 287 288 286 286 285 286 285 285 285 285 285 284 284 285 285 286 286 286 286 286 286 286 286 285 285 285 285 285 285 285 286 286 286 286 286 286 286 286 286 287 287 287 287 287 286 287 287 287
288 289 289 289 289 289 289 289 287 287 288 290 289 289 289 289 289 289 289 290 291 291 291 291 292 291 292 292 292 292 292 293 293 292 290 287 288 288 288 287 285 285 287 287 288 286 285 284 285 285 284 284 286 285 285 285 285 286 286 286 286 286 286 286 286 286 285 286 286 286 286 286 286 286 286 286 286 286 286 286 287 287 287 287 287 287 287
286 287 286 286 287 287 287 286 287 288 289 290 290 289 288 288 287 286 286 287 288 288 289 289 290 291 290 289 289 290 290 290 288 289 289 287 287 288 287 287 287 286 286 288 288 287 284 284 284 284 285 285 286 286 285 285 285 285 286 286 286 286 285 286 284 284 285 286 286 286 286 286 286 286 287 287 287 287 287 287 287 286 285 286 287 287 287
286 287 286 286 287 288 288 289 289 288 287 288 288 288 288 288 287 285 284 284 283 284 286 286 286 287 287 287 286 286 286 286 286 286 288 287 286 284 284 285 286 286 287 287 287 287 286 285 285 285 285 286 286 286 286 286 285 285 285 285 285 286 285 285 285 286 286 286 286 286 286 286 286 286 287 287 287 287 287 287 286 287 287 287 287 287 288
288 287 286 286 286 285 286 286 285 285 285 285 284 285 285 286 285 284 283 283 285 285 285 285 285 284 284 285 285 284 284 285 285 285 285 286 285 284 284 283 285 285 285 286 286 286 286 285 284 284 284 286 286 286 285 284 286 286 285 285 285 285 285 286 286 286 286 286 286 286 286 286 286 286 286 286 286 286 287 287 287 287 287 287 288 287 287
Wind_Speed
0 2 2 1 2 1 4 7 9 7 7 6 9 6 4 8 6 7 6 9 10 11 16 18 18 19 20 18 15 12 11 13 12 12 13 13 13 11 11 11 10 10 10 9 9 10 10 11 9 8 8 7 6 6 5 5 6 5 5 7 6 6 6 6 6 6 6 7 7 8 8 7 8 8 8 7 7 7 7 8 8 9 9 10 10 11 11
4 6 6 3 6 2 4 4 2 5 12 10 8 4 5 7 3 5 11 13 5 2 9 10 6 5 10 10 10 11 12 13 14 13 12 13 12 12 12 11 11 10 10 10 10 11 10 11 10 9 7 6 6 7 6 6 6 5 6 6 6 6 6 7 7 7 7 7 7 7 7 8 8 7 7 7 8 9 10 9 8 9 10 10 11 11 10
2 5 6 6 2 2 7 2 2 2 5 5 2 5 3 5 6 2 7 10 4 2 6 9 9 10 9 11 13 14 13 13 15 15 14 13 13 13 12 13 13 11 10 10 11 11 10 10 9 8 6 6 6 7 6 6 6 5 7 6 6 6 7 7 7 7 7 7 7 9 8 7 7 8 8 7 8 9 9 9 10 9 9 11 10 9 11
1 2 5 3 5 5 7 4 3 4 7 7 3 5 5 5 6 6 9 4 4 4 9 10 12 14 14 15 15 14 12 14 14 15 15 15 14 13 14 12 11 12 12 12 12 12 10 9 8 8 7 6 7 6 6 7 6 6 6 6 7 7 8 8 8 8 7 7 8 7 7 8 8 7 7 8 9 9 9 10 9 9 11 11 11 11 10
3 1 3 3 4 4 4 1 1 1 3 2 2 3 2 2 13 12 7 11 5 10 12 15 14 17 15 14 15 14 14 13 14 16 16 15 14 13 13 13 13 13 13 13 13 12 11 11 9 7 7 7 7 7 8 7 7 7 6 6 6 7 7 8 8 8 7 8 8 8 8 8 7 7 8 10 10 10 10 8 8 11 11 11 11 10 11
4 1 4 2 2 3 4 1 0 1 1 3 5 3 4 4 3 4 2 4 10 13 13 15 16 19 21 19 14 14 16 14 11 12 15 16 14 12 11 11 13 12 11 10 11 11 11 9 8 8 7 8 6 6 7 7 8 6 6 6 7 7 8 8 8 8 7 8 8 8 7 7 8 8 10 10 9 8 8 8 10 10 10 11 10 11 10
2 2 4 1 1 4 1 3 5 5 3 2 1 1 2 2 1 1 1 7 15 16 13 13 11 8 8 9 13 10 12 15 14 14 10 10 11 10 10 11 11 11 12 12 12 10 10 11 8 9 9 8 7 6 6 8 7 7 6 7 7 7 8 8 8 8 8 8 8 7 7 8 8 10 9 8 9 8 8 9 9 9 9 10 10 10 10
3 4 2 2 3 4 3 4 1 2 2 1 3 2 0 3 3 4 4 3 6 10 10 10 8 10 9 9 9 14 13 13 16 14 12 12 11 12 11 14 13 14 14 15 14 11 9 10 8 7 9 8 8 6 6 8 7 7 7 7 7 7 8 8 8 7 7 7 7 7 8 8 9 10 9 9 9 6 7 8 7 8 8 9 10 10 10
4 4 4 6 3 3 1 3 2 4 4 5 3 3 5 5 4 6 7 7 7 10 11 11 12 12 11 9 3 3 8 7 4 12 15 14 12 11 9 13 15 14 15 15 13 12 11 10 9 8 8 8 8 7 7 6 7 7 8 7 7 8 7 7 7 7 6 7 7 8 7 9 10 9 9 8 7 5 8 8 9 9 9 8 7 9 10
4 6 2 1 1 3 6 8 3 1 1 2 2 3 1 2 4 6 10 11 9 12 13 14 14 14 13 8 9 7 4 5 9 8 7 8 10 11 11 10 11 12 12 13 12 13 12 10 9 8 8 8 8 7 6 6 7 7 7 6 6 7 7 7 7 6 6 7 8 8 9 10 9 8 7 6 7 5 8 8 9 8 6 8 9 9 10
4 3 5 4 4 7 7 6 3 2 0 2 1 2 3 4 10 8 12 12 11 14 18 17 16 13 13 14 13 8 9 10 11 12 9 10 10 11 14 17 16 13 13 14 12 12 13 12 9 9 9 9 9 8 6 7 8 8 7 6 7 8 7 6 6 6 6 7 8 8 9 8 7 8 7 7 5 6 7 7 7 6 6 8 9 9 9
3 6 5 5 4 1 0 3 1 3 3 1 1 1 5 6 12 13 14 16 16 13 14 18 18 16 12 14 13 12 13 13 12 14 14 13 12 11 10 11 15 15 14 14 13 12 11 9 9 10 10 10 10 7 6 7 9 8 7 7 7 7 7 7 7 7 6 7 7 8 9 8 7 7 5 6 7 7 7 6 7 7 7 8 10 8 7
4 6 0 3 4 4 2 2 3 4 2 3 4 6 3 3 8 13 15 17 17 17 16 15 16 10 1 5 15 16 15 14 9 8 10 13 16 17 15 14 14 14 12 13 13 11 10 8 8 8 10 11 9 7 7 8 8 7 6 7 8 7 7 8 8 8 6 7 9 8 7 7 7 6 6 7 6 7 7 6 7 8 9 8 9 8 8
7 5 5 5 3 5 5 1 5 5 5 2 7 7 1 2 9 4 6 9 11 15 18 9 3 5 13 17 16 16 16 15 13 14 14 12 10 10 13 16 14 12 11 12 12 9 7 8 8 8 10 11 9 8 8 8 6 6 7 8 8 8 9 8 8 7 7 7 7 7 6 6 8 8 6 6 6 6 6 7 9 9 8 7 8 8 8
5 3 3 2 2 1 6 10 3 0 3 5 4 2 2 3 6 11 6 9 8 9 5 4 9 12 16 17 16 14 15 16 16 16 16 16 16 15 12 10 11 15 13 12 11 11 8 7 7 8 11 11 9 8 9 7 6 7 7 8 8 9 8 8 8 8 7 8 7 6 6 6 8 8 6 7 6 6 7 8 9 9 8 7 7 8 8
6 2 4 4 4 3 3 5 7 5 6 1 3 4 1 1 5 8 8 6 9 8 8 9 10 13 15 14 15 14 13 15 16 16 16 16 16 14 13 14 12 14 14 12 11 8 7 7 7 8 11 11 9 10 8 5 6 7 8 8 9 9 8 8 8 7 7 7 7 6 6 6 8 8 7 7 7 6 6 7 7 8 7 6 7 8 8
3 5 5 1 2 4 2 1 1 2 4 2 4 3 3 6 4 3 7 8 7 11 11 12 12 11 12 14 14 16 14 15 16 16 17 18 18 16 15 13 13 14 15 15 13 10 7 7 7 6 7 12 12 11 6 6 8 8 8 9 9 9 8 8 8 7 7 7 6 6 5 6 8 7 7 6 8 5 6 7 7 7 6 6 7 6 7
2 2 3 2 2 2 3 2 2 3 2 2 2 5 5 1 4 6 10 8 10 11 13 14 8 12 11 14 11 13 14 14 13 15 16 16 16 16 14 14 14 14 12 13 14 13 9 7 8 8 7 9 14 10 7 7 7 8 9 10 10 9 8 7 8 8 9 7 7 7 7 7 7 6 6 6 7 6 6 6 6 7 6 6 6 7 7
2 2 2 2 1 2 2 2 2 0 1 1 1 4 4 6 6 6 7 12 12 13 12 15 13 12 14 14 12 12 12 13 13 14 15 15 16 16 16 15 15 14 13 12 13 13 13 8 8 7 8 6 7 9 9 8 8 9 9 10 9 8 8 8 7 7 9 7 6 7 7 7 6 6 5 6 6 6 6 6 6 6 6 6 6 7 7
2 1 3 3 2 2 2 2 1 1 3 3 2 0 1 4 5 9 10 11 12 13 12 14 16 15 13 16 14 13 13 13 13 13 15 15 14 14 16 15 16 15 14 14 14 13 11 9 9 9 8 9 8 8 8 8 8 10 10 9 9 8 8 7 7 7 8 8 8 7 6 6 7 6 6 5 7 6 6 6 7 6 6 6 6 6 6
1 2 2 2 2 1 3 2 1 1 1 0 2 3 4 6 9 8 6 9 13 11 13 14 17 16 14 17 18 16 12 13 12 12 14 15 15 13 13 13 16 15 14 14 14 13 11 9 10 10 9 8 8 9 8 8 9 11 10 9 9 9 8 8 7 6 6 6 6 7 6 6 6 4 5 6 6 4 1 0 3 7 7 5 5 5 5
2 5 4 3 2 2 1 1 1 1 1 1 3 3 5 6 9 9 10 5 4 7 13 14 16 17 13 13 16 17 15 15 13 13 13 14 15 14 13 12 12 13 14 15 14 12 10 9 10 10 9 8 7 7 8 8 10 12 11 9 9 8 7 7 7 7 7 7 6 7 7 7 7 6 6 5 3 5 4 3 3 2 3 4 5 5 6
1 5 6 5 2 0 1 2 0 0 0 1 5 5 6 4 5 8 11 11 9 9 5 4 9 13 17 15 13 15 13 13 15 15 15 14 13 13 12 12 12 13 12 12 13 12 11 10 10 10 9 8 8 7 7 7 9 11 11 9 8 7 7 7 7 7 7 7 6 7 6 6 6 6 6 6 7 8 6 5 6 8 9 7 5 3 6
1 1 3 4 2 2 3 2 2 1 1 2 4 2 3 5 6 4 7 12 14 9 9 9 11 13 8 4 12 15 11 12 13 13 14 16 16 14 13 14 14 13 13 13 13 13 10 11 11 10 10 8 8 7 7 7 8 10 9 10 9 7 7 7 7 7 7 7 7 7 6 4 5 5 6 7 7 9 10 10 11 10 9 8 8 8 6
0 0 2 1 3 4 3 4 3 2 2 2 4 3 4 7 5 5 6 5 7 17 14 11 7 12 16 11 5 11 16 13 13 15 14 13 13 13 13 13 14 15 14 12 11 11 11 11 11 10 10 8 7 8 7 8 8 10 9 9 9 7 7 7 7 7 7 7 6 6 6 5 5 5 7 6 7 6 6 9 11 10 10 9 9 8 8
5 6 6 5 5 4 1 4 6 4 3 3 4 3 3 4 8 9 5 7 8 6 11 13 12 10 12 13 11 9 11 12 12 13 13 13 11 11 12 13 11 10 11 11 11 11 11 12 12 11 10 8 8 8 8 8 8 9 9 8 9 8 7 7 8 7 7 6 6 6 5 5 5 6 6 6 6 5 6 6 6 7 8 9 8 9 9
5 5 9 8 5 3 4 2 2 1 4 3 7 5 6 7 9 9 8 8 7 11 14 13 12 9 8 10 13 9 12 12 10 10 11 13 14 12 11 10 11 12 12 12 11 11 13 12 12 11 10 9 8 8 8 8 8 8 8 8 7 7 10 7 7 7 6 6 6 5 5 5 5 5 5 4 5 6 6 6 6 6 3 4 6 7 5
2 2 1 3 5 3 1 1 4 4 5 5 7 8 6 8 9 11 11 11 10 8 9 12 15 15 12 11 14 12 10 14 12 10 10 10 8 9 10 11 12 12 11 11 11 11 11 11 11 11 10 8 8 8 9 8 9 9 8 8 7 7 6 6 6 6 6 6 5 5 5 5 4 5 5 5 5 5 4 5 5 4 2 2 2 4 5
4 4 4 4 8 6 5 4 6 7 7 5 5 6 9 10 8 9 9 9 10 10 9 7 7 11 14 12 13 16 13 13 13 13 11 9 9 10 10 11 10 10 10 10 10 10 10 10 10 11 9 7 8 8 9 9 9 8 8 7 7 7 6 5 5 5 5 4 4 4 4 4 4 4 4 4 4 4 4 4 4 2 2 1 2 2 3
3 3 8 7 6 7 8 6 5 6 6 6 7 6 6 12 9 7 8 8 8 10 8 10 11 9 8 10 11 15 16 16 14 12 12 11 10 10 10 9 8 8 8 9 10 10 10 10 10 11 9 8 9 9 9 9 8 9 9 8 8 8 6 6 4 5 5 4 4 4 4 4 3 4 4 4 4 4 5 4 3 3 2 0 1 4 3
5 5 8 7 8 7 8 6 5 5 6 5 6 8 6 7 11 9 7 7 6 8 9 10 11 12 10 9 7 6 10 12 12 12 11 11 11 10 10 9 11 11 10 10 10 9 10 10 10 10 9 9 9 9 9 8 8 7 7 7 6 9 10 9 6 6 5 5 5 4 4 4 4 5 5 5 4 3 3 3 3 1 2 1 3 3 3
10 8 8 6 6 7 6 5 6 6 5 5 7 8 9 10 10 10 8 7 7 8 9 10 11 11 10 9 10 10 11 11 11 11 10 9 10 10 10 8 8 8 8 9 9 9 9 9 9 8 9 9 10 9 9 9 8 8 8 7 7 6 7 10 6 6 5 6 6 5 5 5 4 4 4 5 5 5 4 4 4 3 4 4 4 4 3
10 8 5 5 5 5 6 4 7 6 6 6 4 4 4 4 5 6 7 8 8 6 8 8 8 9 9 9 10 10 11 11 10 11 11 10 9 8 7 6 8 9 9 9 10 9 10 10 9 8 9 9 9 9 9 10 9 8 8 7 7 7 7 7 7 6 5 5 6 6 6 6 5 6 6 6 5 4 4 3 3 4 5 5 5 5 3
10 9 11 10 11 9 7 4 4 5 5 5 4 5 6 6 6 6 7 6 7 8 8 8 8 9 9 10 11 11 11 12 10 9 10 10 10 8 6 7 7 8 8 7 7 7 6 7 9 9 8 9 9 8 8 9 9 8 8 7 7 7 7 6 7 7 7 7 7 7 6 6 6 6 6 5 5 5 5 5 5 5 3 5 5 5 4
2 1 4 5 2 5 9 9 7 7 7 7 5 5 5 6 6 6 7 8 7 6 6 8 8 8 9 9 11 11 12 12 10 11 12 11 10 8 7 8 7 7 7 6 7 7 7 9 9 9 9 8 8 7 7 8 8 8 7 8 8 8 7 7 7 7 8 7 6 6 6 6 6 4 4 5 5 5 5 5 5 5 3 4 5 4 4
4 5 4 4 4 4 5 7 7 7 7 8 7 7 7 6 7 8 9 7 6 7 7 8 8 8 9 10 9 9 9 9 9 9 9 8 8 8 9 9 9 8 8 5 2 4 7 8 11 12 9 8 7 7 7 7 7 8 8 8 8 7 7 7 7 6 6 6 7 7 7 7 6 6 6 5 4 4 5 5 5 6 4 5 5 5 5
4 6 4 5 5 5 4 4 5 6 6 7 8 7 7 6 7 5 6 7 7 8 8 8 8 9 7 6 6 6 7 9 9 9 8 8 8 9 9 8 8 9 8 8 4 3 5 8 11 14 10 8 8 7 7 10 8 7 7 7 7 8 7 6 6 6 6 6 7 7 6 4 5 5 5 5 5 6 5 5 6 6 6 6 6 6 6
3 5 5 5 6 6 5 4 4 5 6 5 3 5 8 7 6 7 7 7 6 7 8 7 7 7 8 7 8 7 6 6 8 9 8 9 9 10 8 8 6 6 7 7 6 6 5 7 12 9 7 7 7 7 8 10 10 8 7 7 7 7 7 7 7 6 6 6 6 6 6 7 6 6 6 5 5 6 6 6 6 6 6 6 4 5 5
4 5 7 5 5 5 6 5 5 3 5 8 6 5 4 7 7 7 7 6 5 6 7 8 8 9 8 9 8 7 7 7 7 10 10 9 7 10 8 8 9 11 8 6 8 7 7 8 7 7 7 7 6 5 7 9 9 8 7 7 7 6 7 6 7 7 7 6 6 6 6 6 6 6 6 6 6 6 6 7 7 7 6 6 6 6 6
4 5 7 7 6 5 6 5 5 5 3 5 9 8 7 7 7 7 7 6 4 6 8 8 9 8 8 8 8 8 8 8 8 9 10 8 7 7 6 2 1 1 4 11 9 7 9 11 8 7 7 6 6 7 6 9 8 6 7 7 7 6 6 6 6 6 6 6 7 6 6 6 6 6 6 6 5 6 6 6 6 6 6 5 5 6 6
5 4 4 6 7 6 7 7 6 5 6 4 5 6 8 9 7 8 7 7 5 6 8 8 8 8 8 8 8 8 7 7 8 9 9 9 8 7 7 6 5 3 4 6 8 8 11 9 7 7 6 6 6 7 7 8 7 6 6 7 7 6 6 6 6 7 6 7 6 6 7 7 7 6 6 6 6 6 6 6 6 6 6 6 6 5 5
4 5 6 6 6 6 6 6 6 6 5 5 6 7 7 9 10 9 8 7 7 6 7 7 10 10 8 8 8 8 8 6 6 7 10 12 11 7 7 7 6 6 7 7 9 9 8 8 7 7 7 7 6 8 9 8 7 7 7 7 7 7 7 7 7 6 6 6 6 6 6 5 6 6 6 6 6 6 6 6 6 6 6 6 6 6 6
6 8 7 7 6 7 7 7 7 7 6 6 7 7 7 5 7 7 8 8 8 7 7 6 9 10 10 9 9 8 8 6 6 6 5 3 7 9 10 7 6 6 9 8 8 7 8 7 7 6 8 8 7 9 9 7 7 7 6 6 7 7 7 7 7 6 6 6 6 6 6 6 6 6 7 6 7 7 6 6 7 7 7 6 6 6 6
6 5 6 8 7 6 6 6 6 7 7 6 4 6 7 5 7 9 8 8 9 9 9 8 8 9 9 10 9 8 8 8 7 6 6 5 2 1 2 5 7 8 10 8 7 7 7 7 7 9 11 11 11 12 8 6 6 7 6 6 6 7 7 7 7 6 6 7 7 7 7 7 7 7 7 7 7 7 6 6 6 6 6 6 6 6 6
6 5 5 5 6 6 7 7 8 8 6 6 5 5 6 6 6 7 8 8 8 9 9 9 9 9 9 10 10 10 9 9 9 9 8 7 7 5 1 5 7 7 8 9 7 7 7 7 9 11 11 11 12 12 8 7 7 7 7 7 6 7 7 7 7 7 7 7 7 7 7 7 7 7 7 7 7 7 7 7 8 7 7 7 6 6 7
6 6 6 6 6 5 5 5 5 7 8 7 5 3 5 6 7 6 7 8 8 7 8 9 9 9 9 8 6 6 6 6 7 9 9 11 10 7 7 8 7 6 10 10 7 7 7 9 11 11 12 13 12 10 7 7 6 6 6 6 6 7 7 7 7 7 7 8 8 7 7 7 6 7 7 7 7 8 8 8 7 6 6 7 7 7 7
6 5 6 6 4 4 5 5 7 8 8 7 7 5 3 4 6 6 5 6 8 8 7 7 8 8 9 9 9 8 6 5 2 1 2 0 2 7 9 10 10 10 9 8 7 7 7 7 7 9 11 12 13 8 8 7 7 6 7 7 7 7 7 7 7 7 7 7 8 8 8 7 7 7 7 6 6 7 7 7 6 8 8 7 7 8 8
7 6 5 6 6 5 6 7 7 7 7 7 6 5 5 4 4 4 4 4 5 6 7 5 5 4 5 6 7 9 11 10 8 5 1 3 3 5 6 7 8 10 12 9 9 8 10 10 11 11 10 10 9 7 7 7 7 7 7 7 7 7 7 6 6 6 6 7 7 6 7 7 7 7 7 7 8 8 7 7 7 8 7 6 7 9 9
6 6 5 4 6 6 6 6 6 5 5 4 6 5 5 5 5 5 5 5 6 5 5 5 5 4 4 5 5 5 6 8 10 9 7 6 6 6 6 7 11 12 10 8 8 6 8 9 9 10 11 9 7 7 7 7 7 7 7 7 7 7 7 6 6 6 6 7 7 7 7 8 7 7 7 8 7 8 7 8 8 7 7 7 7 8 8
5 6 6 6 6 6 6 6 7 6 5 6 6 6 5 6 6 4 4 5 5 4 4 5 5 5 5 5 3 2 4 2 2 4 8 8 6 7 7 7 7 9 9 8 7 7 6 10 9 9 8 7 6 6 6 7 7 7 7 8 8 7 7 8 6 7 7 7 7 7 7 7 7 8 8 7 8 8 7 8 8 10 13 9 8 7 7
6 7 6 6 6 6 6 7 7 6 6 5 6 7 7 6 5 5 5 6 5 6 5 3 1 2 4 3 2 2 2 2 3 6 7 6 6 6 7 7 8 7 8 7 7 7 6 6 7 7 8 8 7 7 6 7 7 7 7 7 7 7 7 7 7 7 7 7 7 7 7 7 7 7 7 7 8 8 8 8 8 7 8 8 8 8 8
7 5 5 5 5 4 3 2 3 4 5 6 6 6 6 6 6 5 3 4 5 6 6 6 3 3 2 3 4 3 2 3 4 5 5 6 6 6 5 6 6 6 6 6 6 6 6 6 6 7 8 7 7 7 7 8 7 7 7 7 6 7 7 7 7 7 7 7 7 7 7 7 6 6 7 7 7 8 8 7 8 8 9 8 8 8 8
Wind_Direction
245 337 330 254 107 141 158 165 161 170 173 171 155 195 169 145 151 195 213 178 182 189 186 179 176 169 166 164 160 150 142 134 134 139 140 142 143 148 150 144 137 136 136 138 137 126 124 121 114 114 112 106 103 97 99 101 97 101 102 94 94 96 94 90 83 77 70 60 60 64 63 58 54 54 55 52 43 34 27 27 27 25 34 35 32 30 24
11 5 2 342 129 129 65 34 168 170 161 187 174 149 180 163 175 199 161 180 185 201 176 169 146 114 126 129 126 131 142 149 143 142 144 144 148 151 149 145 144 144 139 140 133 126 126 124 118 119 118 116 112 108 105 102 105 109 102 97 102 99 93 88 81 74 71 69 65 62 57 57 54 51 51 50 51 49 47 41 35 36 37 38 39 35 29
9 360 12 27 39 186 101 20 36 99 128 83 95 113 111 86 53 54 133 153 185 263 145 136 120 113 114 125 144 150 149 150 152 150 150 152 154 156 151 153 158 139 133 133 127 125 125 124 125 121 121 119 109 103 106 107 106 102 95 96 93 94 87 81 81 77 72 66 64 63 58 57 53 51 49 48 48 48 45 43 43 37 38 42 37 31 34
321 13 22 345 27 72 92 74 51 106 139 134 171 142 203 130 143 119 113 119 227 230 148 127 136 137 145 152 154 152 158 158 154 153 154 156 160 160 158 156 140 136 139 135 132 130 125 120 119 123 124 119 111 113 113 109 104 97 93 97 99 94 89 86 80 76 73 71 69 63 61 57 53 51 50 50 50 46 46 43 41 43 44 43 42 39 39
233 313 18 4 1 43 58 20 325 251 326 50 93 34 90 212 143 128 141 212 192 162 153 144 156 158 157 155 160 156 157 163 161 159 158 162 165 160 157 153 141 143 144 142 137 130 128 132 132 130 125 118 117 120 114 116 107 96 98 100 98 93 91 92 90 84 78 75 72 65 59 59 57 56 55 53 49 45 44 42 44 47 44 43 42 39 41
225 331 324 305 51 120 219 249 192 164 202 169 142 183 206 196 152 184 203 229 134 140 152 162 163 167 178 172 169 159 155 155 160 162 163 167 163 159 154 141 140 141 136 133 131 134 130 124 122 123 119 114 115 114 116 113 105 105 104 98 92 90 86 83 86 84 78 76 71 67 64 61 61 60 57 55 52 49 52 46 47 49 43 46 42 39 38
155 2 350 2 269 231 247 269 239 219 197 152 128 47 241 162 23 346 106 156 157 165 163 165 162 136 106 121 140 151 156 151 160 167 169 162 154 149 135 129 136 135 133 125 120 124 128 125 125 119 113 113 110 111 115 108 108 109 104 94 86 84 82 81 80 77 75 74 75 71 66 66 66 62 60 60 55 47 50 48 48 46 41 44 42 40 37
58 67 70 147 239 245 287 295 308 196 159 206 116 61 209 199 205 159 135 168 152 133 124 125 130 128 118 113 139 153 173 176 163 162 168 162 154 146 149 139 139 138 137 136 135 130 123 120 121 122 120 117 111 114 111 109 112 109 104 93 88 84 80 78 78 76 77 79 77 73 72 70 68 64 59 55 55 45 56 56 53 53 47 47 42 42 38
146 154 157 227 304 330 356 344 221 177 163 182 150 163 246 203 179 149 140 146 143 123 121 119 119 118 113 119 159 224 176 169 173 165 160 156 149 142 142 141 142 141 136 129 129 126 125 123 125 126 119 112 115 113 108 113 113 110 99 90 86 83 80 76 74 74 77 85 83 78 76 74 67 61 60 53 51 41 64 58 56 49 49 45 38 42 39
112 123 79 4 343 260 273 230 274 229 203 146 179 98 300 256 214 168 145 157 150 133 128 126 127 125 121 155 197 193 143 121 116 89 88 105 121 126 121 113 115 119 118 117 123 125 122 117 124 124 118 117 113 109 116 122 112 100 91 88 87 81 78 77 78 77 78 84 86 81 76 74 73 68 64 61 57 35 63 63 57 49 48 54 44 39 40
75 94 147 199 177 244 211 220 220 234 75 110 159 62 285 247 171 180 155 155 160 156 145 140 137 137 165 194 191 168 139 130 125 121 124 128 131 132 135 133 127 126 127 126 123 119 121 128 134 127 123 118 113 120 130 121 109 100 96 94 90 90 88 86 83 83 82 81 84 83 79 73 73 73 64 64 56 54 59 65 64 58 52 57 52 43 39
170 146 150 215 199 189 336 222 239 211 109 121 67 77 277 229 180 173 165 162 162 167 159 157 158 163 175 197 189 151 139 131 134 135 134 129 124 118 115 116 123 123 120 117 120 124 130 135 135 130 125 118 118 128 130 118 103 101 100 99 98 93 92 85 84 79 77 83 78 81 83 79 70 68 67 67 57 66 59 61 67 58 58 57 58 47 35
156 131 333 341 304 266 259 216 201 123 142 73 88 183 227 289 178 177 175 171 166 160 162 169 178 195 310 87 115 130 127 118 116 117 126 135 137 135 131 129 125 125 131 130 128 132 129 133 134 127 121 117 120 127 121 104 101 107 108 102 96 95 91 88 85 81 73 79 83 75 78 84 81 70 60 69 65 67 70 64 68 61 56 55 57 49 38
158 187 131 206 236 241 173 255 148 169 106 128 194 232 218 186 160 180 169 165 171 170 175 171 67 104 118 116 123 129 130 127 128 127 121 109 96 104 124 131 129 120 114 109 110 109 120 132 133 129 121 117 123 124 109 105 115 114 105 100 99 95 90 88 87 82 83 76 74 80 76 82 83 73 58 65 69 72 73 72 68 62 53 50 54 49 40
53 41 73 43 202 227 139 126 71 207 162 227 208 283 292 214 173 156 160 163 165 165 144 97 125 122 122 129 130 129 127 128 131 130 129 127 127 125 121 115 124 123 119 122 125 127 135 133 129 128 120 119 120 112 106 120 120 110 105 103 100 97 93 89 85 84 78 78 78 76 78 79 86 81 67 67 62 63 72 72 68 65 51 46 51 47 43
138 119 149 196 221 201 208 157 175 210 197 203 191 139 60 52 150 152 142 155 158 150 127 135 131 134 126 128 132 126 128 130 133 134 133 130 129 131 133 135 139 126 122 124 122 124 126 122 118 124 124 119 118 114 120 131 113 109 105 102 101 95 93 91 88 85 82 77 75 72 81 83 81 83 73 72 66 59 64 71 74 67 49 49 54 51 47
127 189 210 244 257 240 265 128 217 244 253 237 190 156 182 150 166 143 139 148 137 131 133 133 136 134 137 136 138 134 137 136 136 136 137 137 135 136 136 138 134 129 134 135 129 125 123 122 119 119 127 125 120 121 139 130 125 118 112 106 100 97 96 95 93 92 81 77 74 69 61 76 84 82 74 73 75 48 68 67 70 74 60 59 62 61 54
244 236 206 269 313 333 331 291 231 240 298 308 204 169 143 212 164 162 149 140 132 135 138 130 138 137 137 130 130 130 135 135 140 139 139 137 137 136 134 134 134 129 128 128 128 127 124 121 117 118 119 132 134 141 139 129 124 120 113 106 100 100 100 97 99 100 93 82 75 72 73 66 73 72 86 83 87 72 72 70 69 76 73 69 68 64 64
135 270 348 22 271 294 308 317 319 263 272 270 245 192 178 155 139 118 136 140 142 143 146 139 142 141 143 134 134 136 137 137 140 142 140 139 138 140 140 138 129 128 135 134 134 134 133 133 126 126 123 109 118 128 130 126 121 115 108 105 105 103 101 100 96 97 98 101 90 76 71 70 64 65 66 79 85 80 76 79 77 79 74 78 72 67 65
139 240 292 274 264 244 269 285 302 343 340 356 8 134 151 132 124 136 145 135 138 145 146 147 142 145 147 140 144 142 142 142 144 144 142 140 139 141 140 142 138 137 142 142 140 139 138 138 132 125 121 124 126 124 122 121 117 109 105 109 110 108 105 102 100 100 101 99 97 86 71 75 79 71 57 66 77 78 90 101 102 85 90 81 82 82 77
316 308 294 300 312 327 355 344 3 282 278 10 70 96 112 123 123 123 134 152 154 155 152 149 144 145 157 151 147 143 143 143 145 147 144 141 136 133 136 141 142 144 145 143 142 139 137 134 129 124 124 124 125 123 122 120 119 111 109 107 106 104 105 102 99 96 98 98 98 98 91 75 62 74 89 81 93 79 16 198 133 124 111 105 109 114 93
306 218 227 179 121 245 239 281 274 290 305 159 108 99 110 126 131 138 128 100 108 139 151 155 149 148 152 154 147 145 149 148 146 144 141 138 139 142 145 142 140 139 144 141 139 135 134 133 129 127 126 124 121 122 121 124 122 116 116 110 105 104 104 106 110 109 105 100 99 94 94 92 88 64 33 54 52 103 88 40 73 95 139 137 157 134 87
229 245 205 176 143 150 237 221 24 267 320 154 129 140 137 139 141 143 131 124 115 114 91 95 135 146 153 153 144 139 146 148 147 145 140 136 136 135 136 132 138 139 138 135 130 131 136 134 131 130 128 126 124 123 124 129 125 121 120 113 109 110 110 112 118 118 115 106 101 95 92 95 90 100 87 47 49 53 72 89 90 81 78 94 108 74 103
253 251 182 158 153 178 161 124 77 33 359 130 108 105 121 128 136 138 140 142 134 123 114 112 115 102 69 97 140 137 138 141 141 144 144 141 142 141 144 143 142 138 136 138 138 139 138 135 134 131 129 131 131 131 128 127 124 120 122 122 124 125 121 122 118 114 110 109 107 103 96 89 98 105 99 92 57 35 46 64 64 67 73 75 74 75 75
281 22 110 87 93 89 94 114 81 65 51 108 110 101 135 121 93 92 113 107 135 138 135 127 116 124 132 124 130 146 145 146 145 140 136 132 134 137 140 140 144 145 145 142 138 136 137 137 135 136 135 139 136 134 133 132 129 124 125 123 125 127 129 125 119 115 112 112 114 116 123 116 105 99 98 97 94 79 39 53 68 69 62 64 72 74 82
128 104 92 87 84 76 81 69 39 29 47 91 100 69 54 88 116 106 99 118 109 93 119 127 122 125 127 125 123 133 128 132 136 132 129 129 126 127 137 143 139 134 134 135 136 138 139 140 141 141 140 145 146 142 139 136 133 131 132 131 134 138 139 135 126 120 122 122 124 124 121 116 114 104 107 114 124 120 105 85 60 49 49 46 50 68 62
98 118 107 78 61 71 34 120 181 107 69 70 94 92 85 84 84 88 86 71 91 117 117 109 109 107 104 117 120 123 127 122 120 123 127 130 137 140 138 133 135 135 134 134 136 141 141 142 142 145 149 154 149 145 141 135 131 129 130 132 132 132 131 131 131 134 134 130 128 122 114 113 114 117 131 145 140 126 120 117 113 104 79 22 29 45 67
85 349 29 153 190 184 91 68 106 89 76 85 100 98 97 96 97 98 99 100 100 102 112 129 131 126 126 131 124 118 124 124 120 116 112 112 107 115 123 127 130 132 132 133 136 140 143 145 146 148 153 153 150 146 143 139 138 137 139 140 139 139 139 129 128 135 139 140 133 130 128 131 133 133 144 147 132 125 113 106 116 116 70 22 347 351 43
15 36 43 78 108 128 121 100 80 80 78 64 77 96 107 97 94 103 105 114 121 118 112 107 105 127 136 141 138 135 137 130 128 131 123 113 111 115 117 118 118 123 128 131 135 142 144 146 150 152 156 158 152 150 146 144 142 145 145 147 143 144 145 150 148 144 141 125 122 117 116 125 124 115 111 105 106 108 109 118 117 84 93 54 42 44 25
57 72 87 87 96 103 94 83 88 89 92 98 93 83 102 112 101 95 112 116 124 122 124 123 123 120 128 137 146 145 144 144 138 132 127 128 130 128 120 120 114 110 124 136 146 149 148 151 154 156 159 161 156 152 152 150 151 153 153 153 155 158 161 156 144 143 140 141 123 115 119 124 117 127 121 123 125 131 129 131 126 128 141 117 111 137 134
61 63 83 88 82 75 88 96 90 88 90 89 100 100 77 96 113 115 114 114 110 120 131 132 129 129 135 139 132 120 121 126 127 129 131 136 137 133 134 143 144 158 159 155 151 151 151 153 156 158 159 156 155 155 155 153 150 149 145 152 159 166 157 150 159 163 158 139 145 144 153 147 152 144 149 141 127 117 118 124 143 167 256 220 209 194 226
82 67 73 81 94 99 95 95 102 104 104 110 114 123 133 132 132 130 128 124 130 129 126 128 134 136 136 135 131 129 126 125 126 128 130 133 139 145 151 157 146 145 147 148 149 150 150 148 154 156 152 154 154 158 156 150 146 151 161 158 154 160 164 156 150 165 158 162 159 165 168 159 167 155 141 157 169 174 166 160 186 211 210 208 222 237 241
99 90 77 92 91 107 121 138 132 133 133 126 110 99 87 91 106 117 125 127 119 116 121 125 125 126 127 127 125 127 128 127 127 127 133 140 143 149 153 152 154 154 150 155 153 154 154 156 153 147 151 150 153 156 160 156 157 156 155 153 154 156 157 166 162 155 156 154 171 185 181 182 169 170 185 185 178 162 168 183 191 204 215 218 234 250 235
151 167 174 178 158 156 157 156 123 106 81 72 91 100 102 107 115 111 113 115 118 123 128 127 126 126 127 129 131 130 130 127 131 138 144 145 149 151 149 144 150 149 146 143 144 149 154 144 141 149 149 149 150 155 161 158 152 149 149 146 145 147 154 155 153 154 158 182 189 186 184 171 171 185 186 184 176 173 183 192 201 207 216 241 248 251 267
76 41 158 159 140 148 148 144 148 137 131 121 108 98 103 112 115 116 118 127 130 125 119 120 124 125 124 127 134 141 145 145 145 146 149 148 147 145 138 133 126 118 122 139 151 153 150 147 146 143 144 146 149 153 157 153 146 145 149 149 150 153 155 151 158 162 173 181 175 174 191 192 201 196 185 172 187 192 195 210 211 212 221 246 258 263 267
93 103 114 114 105 120 142 146 147 148 143 138 137 134 131 126 121 124 125 122 118 119 118 122 127 127 131 137 140 143 140 138 139 139 138 141 141 137 137 140 139 136 137 136 134 136 143 145 147 144 143 147 150 153 155 150 146 147 150 146 147 147 153 163 169 171 165 157 173 191 193 201 186 184 191 197 196 194 207 219 225 223 226 237 248 266 270
138 144 145 127 119 121 132 136 143 140 138 135 131 126 126 127 126 117 115 120 125 129 129 129 133 138 138 134 129 124 131 135 138 136 138 138 140 137 142 143 141 145 145 154 178 131 149 148 151 144 141 147 152 158 161 151 144 146 141 145 144 150 156 160 165 169 176 184 181 187 192 178 183 197 200 197 206 215 215 226 238 239 241 243 244 247 258
136 133 135 134 136 130 123 116 106 109 110 98 98 128 135 127 127 129 133 131 130 131 130 126 121 116 116 112 113 119 118 122 127 129 133 140 144 140 143 142 150 141 155 176 159 145 154 150 148 143 144 149 156 158 162 161 144 143 144 150 154 155 160 164 161 167 176 192 197 177 173 185 188 197 203 206 213 210 214 223 229 233 239 239 236 234 235
92 88 91 92 96 109 110 105 104 112 132 133 123 105 109 125 125 124 125 128 125 126 121 115 116 118 124 125 122 121 123 131 136 135 138 146 150 143 157 167 172 176 171 145 137 147 138 148 155 146 153 159 153 154 153 152 150 147 149 151 152 162 165 166 173 176 179 183 181 190 190 192 196 199 199 207 210 213 215 222 224 227 234 240 229 231 229
117 125 130 126 123 124 117 119 123 127 134 140 136 139 138 129 131 126 124 121 131 128 125 127 131 133 135 132 135 139 146 146 146 142 142 139 131 127 117 108 159 64 107 141 140 141 147 149 150 151 159 158 154 152 156 157 154 147 149 154 162 166 173 173 172 174 177 169 189 190 192 194 200 207 212 213 213 220 228 232 235 239 244 242 233 233 230
130 121 123 125 134 135 135 137 139 142 138 138 131 137 142 136 135 131 139 141 144 138 135 137 133 136 138 139 140 138 138 145 149 149 142 127 127 140 155 179 194 144 146 150 147 145 148 153 150 152 161 159 160 156 154 162 158 158 162 160 162 168 167 173 183 189 185 190 190 188 197 200 200 210 217 214 218 222 225 229 229 229 223 224 231 230 227
135 124 121 122 130 135 137 134 131 129 135 140 146 146 150 145 146 151 149 140 138 142 141 144 143 143 139 131 123 128 130 138 144 154 157 155 158 159 167 191 173 162 163 148 141 143 150 153 155 156 159 165 164 173 164 160 170 169 171 172 174 173 176 179 185 198 197 192 197 206 202 196 203 223 228 230 238 238 232 231 236 238 235 225 228 225 224
144 140 138 136 135 137 141 145 147 145 136 144 153 154 156 147 133 131 139 141 138 136 133 130 130 130 136 138 138 138 141 142 151 163 163 155 164 170 175 180 162 161 154 152 150 148 159 163 159 166 167 165 173 175 169 168 172 174 182 186 189 190 194 193 198 190 180 186 198 207 204 205 211 223 229 230 235 235 233 229 231 229 224 221 225 225 228
146 141 144 145 149 150 138 132 130 133 140 152 153 148 144 143 146 146 145 145 142 140 139 141 140 141 144 147 145 144 148 158 160 164 150 127 134 332 21 152 158 157 157 154 157 161 166 169 173 170 174 177 170 166 168 173 174 179 185 185 191 194 200 208 214 201 194 199 202 205 206 208 212 221 223 231 236 237 230 230 231 228 228 225 227 227 233
143 143 143 145 144 141 141 144 152 157 150 133 132 142 144 143 152 152 147 147 147 149 145 144 145 148 150 155 161 166 167 168 164 157 150 163 167 213 204 139 147 151 166 161 161 169 174 178 178 170 173 177 173 171 169 169 174 177 183 189 195 194 199 202 206 208 208 209 211 212 210 213 217 218 219 227 227 228 227 220 223 222 220 225 223 226 229
125 132 137 138 152 161 156 138 126 119 119 115 113 121 145 148 150 158 156 148 144 152 152 148 149 153 157 157 143 138 145 155 170 179 174 165 177 185 164 157 163 170 165 163 163 172 185 186 175 175 176 175 172 172 178 180 181 176 175 182 193 194 198 203 205 209 210 211 214 212 212 217 216 221 218 218 219 222 229 226 229 230 223 224 224 222 226
133 139 151 151 135 117 117 119 120 118 117 118 126 138 149 147 149 154 159 154 149 150 151 154 157 163 161 154 146 140 139 125 146 302 352 238 89 126 159 162 160 160 157 168 173 185 182 177 183 185 181 178 172 177 180 181 184 189 189 190 190 194 192 191 196 205 208 214 216 217 219 215 215 222 223 229 231 228 229 224 228 231 226 226 232 234 236
143 146 151 148 136 124 118 126 129 137 148 157 153 149 148 142 137 132 127 126 133 139 140 145 145 146 149 161 167 164 159 157 164 226 219 144 141 140 145 157 167 170 173 179 185 195 187 185 182 182 185 181 179 181 181 184 187 193 197 201 196 197 195 190 193 198 204 209 211 210 214 218 220 221 220 219 227 227 227 225 229 231 228 221 226 226 226
147 147 143 132 130 133 137 140 138 143 149 134 127 133 134 127 120 120 124 127 130 129 133 136 140 149 157 170 170 172 179 179 167 184 187 159 156 165 186 171 167 165 169 176 188 200 193 194 193 190 182 179 185 185 184 185 192 197 203 203 207 205 202 200 205 197 197 204 204 204 207 208 211 207 214 217 222 226 225 227 232 232 231 226 229 231 229
127 120 125 134 138 144 146 137 153 160 146 143 141 137 129 121 118 123 122 129 130 125 132 141 157 164 167 166 173 165 170 146 41 104 145 160 159 162 164 164 166 174 176 181 192 198 201 195 195 189 184 193 197 192 191 189 194 201 208 210 210 211 210 209 209 203 205 206 204 207 212 215 215 216 216 216 219 222 222 224 227 232 234 234 232 233 230
145 150 160 163 163 164 166 167 166 158 156 153 143 139 142 148 140 143 139 126 116 124 133 117 106 144 148 145 148 140 122 107 91 126 144 151 149 151 161 165 166 171 181 184 192 199 190 188 192 189 191 196 200 201 198 198 199 206 210 216 217 217 216 213 208 211 213 213 212 213 213 215 215 219 220 223 226 230 230 230 231 232 229 228 228 229 230
155 145 138 138 137 129 119 96 112 133 134 136 140 143 150 135 124 128 129 157 155 160 159 143 185 254 187 168 161 163 157 149 130 120 146 153 154 149 147 144 145 160 172 189 201 198 194 193 190 191 194 197 202 205 208 205 204 209 215 217 218 220 218 217 211 215 219 216 214 222 225 226 221 224 229 230 226 227 230 229 229 233 233 233 231 230 230